When you browse on this site, cookies collect data to enhance your experience and personalize the content and advertising you see.
Visit our Privacy Policy to learn more. By continuing to use the site, you agree to this use of cookies and data.
  • în România
  • Lista ţărilor
  • Pe 7 zile
  • Temperatura apei
  • Hartă satelitară
  • Meteo pe hartă
  • Widget-uri
  • user-avatar
    Intrare

    Meteo pe oră la Rostock

    Astăzi, 20 Mai, Luni

    Timp Temperatura Precipitaţii Vânt Presiune Umiditate
    00:00 +12°C° 0 mm 4 m/s 753 mmHg 97%
    01:00 +12°C° 0 mm 4 m/s 753 mmHg 98%
    02:00 +13°C° 0 mm 4 m/s 753 mmHg 98%
    03:00 +13°C° 0 mm 4 m/s 753 mmHg 98%
    04:00 +13°C° 0 mm 4 m/s 753 mmHg 98%
    05:00 +13°C° 0 mm 4 m/s 753 mmHg 97%
    06:00 +13°C° 0 mm 4 m/s 753 mmHg 97%
    07:00 +13°C° 0 mm 3 m/s 753 mmHg 96%
    08:00 +14°C° 0 mm 4 m/s 753 mmHg 94%
    09:00 +15°C° 0 mm 4 m/s 753 mmHg 93%
    10:00 +17°C° 0 mm 4 m/s 753 mmHg 91%
    11:00 +18°C° 0 mm 4 m/s 753 mmHg 89%
    12:00 +19°C° 0 mm 5 m/s 753 mmHg 86%
    13:00 +20°C° 0 mm 5 m/s 753 mmHg 84%
    14:00 +19°C° 0.2 mm 5 m/s 753 mmHg 86%
    15:00 +19°C° 0.2 mm 5 m/s 752 mmHg 88%
    16:00 +17°C° 0.2 mm 5 m/s 752 mmHg 90%
    17:00 +18°C° 0 mm 4 m/s 752 mmHg 90%
    18:00 +17°C° 0 mm 4 m/s 752 mmHg 91%
    19:00 +15°C° 0 mm 4 m/s 752 mmHg 92%
    20:00 +14°C° 0.2 mm 4 m/s 752 mmHg 93%
    21:00 +13°C° 0.2 mm 4 m/s 752 mmHg 95%
    22:00 +13°C° 0.2 mm 4 m/s 752 mmHg 96%
    23:00 +13°C° 0 mm 4 m/s 752 mmHg 97%

    Mâine, 21 Mai, Marţi

    Timp Temperatura Precipitaţii Vânt Presiune Umiditate
    00:00 +12°C° 0 mm 5 m/s 752 mmHg 97%
    01:00 +12°C° 0 mm 5 m/s 752 mmHg 97%
    02:00 +13°C° 0.1 mm 5 m/s 752 mmHg 97%
    03:00 +13°C° 0.1 mm 5 m/s 752 mmHg 98%
    04:00 +13°C° 0.1 mm 4 m/s 752 mmHg 98%
    05:00 +13°C° 0.2 mm 4 m/s 752 mmHg 97%
    06:00 +14°C° 0.2 mm 4 m/s 752 mmHg 97%
    07:00 +14°C° 0.2 mm 4 m/s 752 mmHg 97%
    08:00 +14°C° 0.7 mm 4 m/s 752 mmHg 96%
    09:00 +15°C° 0.7 mm 4 m/s 753 mmHg 96%
    10:00 +16°C° 0.7 mm 3 m/s 753 mmHg 96%
    11:00 +15°C° 0.3 mm 4 m/s 753 mmHg 95%
    12:00 +17°C° 0.3 mm 4 m/s 753 mmHg 95%
    13:00 +17°C° 0.3 mm 4 m/s 753 mmHg 94%
    14:00 +17°C° 0.5 mm 4 m/s 753 mmHg 95%
    15:00 +16°C° 0.5 mm 3 m/s 753 mmHg 96%
    16:00 +16°C° 0.5 mm 3 m/s 753 mmHg 96%
    17:00 +16°C° 0.4 mm 3 m/s 753 mmHg 97%
    18:00 +16°C° 0.4 mm 3 m/s 753 mmHg 97%
    19:00 +14°C° 0.4 mm 3 m/s 753 mmHg 97%
    20:00 +16°C° 0.3 mm 3 m/s 753 mmHg 98%
    21:00 +16°C° 0.3 mm 3 m/s 753 mmHg 98%
    22:00 +16°C° 0.3 mm 3 m/s 753 mmHg 98%
    23:00 +15°C° 0.1 mm 4 m/s 753 mmHg 98%

    Poimâine, 22 Mai, Miercuri

    Timp Temperatura Precipitaţii Vânt Presiune Umiditate
    00:00 +14°C° 0.1 mm 4 m/s 753 mmHg 98%
    01:00 +14°C° 0.1 mm 4 m/s 753 mmHg 98%
    02:00 +14°C° 0 mm 4 m/s 753 mmHg 98%
    03:00 +14°C° 0 mm 5 m/s 753 mmHg 98%
    04:00 +14°C° 0 mm 5 m/s 753 mmHg 98%
    05:00 +13°C° 0.1 mm 5 m/s 754 mmHg 97%
    06:00 +13°C° 0.1 mm 6 m/s 754 mmHg 97%
    07:00 +13°C° 0.1 mm 6 m/s 754 mmHg 97%
    08:00 +12°C° 0.1 mm 7 m/s 754 mmHg 97%
    09:00 +11°C° 0.1 mm 7 m/s 755 mmHg 96%
    10:00 +11°C° 0.1 mm 7 m/s 755 mmHg 96%
    11:00 +11°C° 0.1 mm 7 m/s 755 mmHg 95%
    12:00 +11°C° 0.1 mm 7 m/s 756 mmHg 94%
    13:00 +11°C° 0.1 mm 8 m/s 756 mmHg 94%
    14:00 +11°C° 0.2 mm 7 m/s 756 mmHg 92%
    15:00 +12°C° 0.2 mm 7 m/s 757 mmHg 91%
    16:00 +12°C° 0.2 mm 7 m/s 757 mmHg 90%
    17:00 +12°C° 0 mm 8 m/s 757 mmHg 88%
    18:00 +12°C° 0 mm 8 m/s 758 mmHg 87%
    19:00 +12°C° 0 mm 8 m/s 758 mmHg 85%
    20:00 +11°C° 0 mm 8 m/s 759 mmHg 87%
    21:00 +10°C° 0 mm 8 m/s 759 mmHg 88%
    22:00 +9°C° 0 mm 7 m/s 760 mmHg 90%
    23:00 +9°C° 0 mm 7 m/s 760 mmHg 88%

    23 Mai, Joi

    Timp Temperatura Precipitaţii Vânt Presiune Umiditate
    00:00 +8°C° 0 mm 7 m/s 760 mmHg 87%
    01:00 +8°C° 0 mm 7 m/s 760 mmHg 85%
    02:00 +8°C° 0 mm 6 m/s 761 mmHg 85%
    03:00 +7°C° 0 mm 6 m/s 761 mmHg 86%
    04:00 +7°C° 0 mm 6 m/s 761 mmHg 86%
    05:00 +8°C° 0 mm 6 m/s 761 mmHg 85%
    06:00 +8°C° 0 mm 6 m/s 762 mmHg 83%
    07:00 +9°C° 0 mm 7 m/s 762 mmHg 82%
    08:00 +10°C° 0 mm 6 m/s 762 mmHg 79%
    09:00 +10°C° 0 mm 6 m/s 762 mmHg 77%
    10:00 +11°C° 0 mm 6 m/s 762 mmHg 74%
    11:00 +13°C° 0 mm 5 m/s 762 mmHg 72%
    12:00 +14°C° 0 mm 5 m/s 762 mmHg 70%
    13:00 +14°C° 0 mm 5 m/s 762 mmHg 68%
    14:00 +15°C° 0 mm 4 m/s 762 mmHg 67%
    15:00 +15°C° 0 mm 4 m/s 762 mmHg 67%
    16:00 +15°C° 0 mm 4 m/s 762 mmHg 66%
    17:00 +14°C° 0 mm 3 m/s 761 mmHg 71%
    18:00 +15°C° 0 mm 2 m/s 761 mmHg 75%
    19:00 +14°C° 0 mm 2 m/s 761 mmHg 79%
    20:00 +13°C° 0 mm 2 m/s 761 mmHg 81%
    21:00 +12°C° 0 mm 2 m/s 761 mmHg 83%
    22:00 +9°C° 0 mm 2 m/s 761 mmHg 84%
    23:00 +9°C° 0 mm 2 m/s 761 mmHg 85%

    24 Mai, Vineri

    Timp Temperatura Precipitaţii Vânt Presiune Umiditate
    00:00 +9°C° 0 mm 3 m/s 760 mmHg 86%
    01:00 +8°C° 0 mm 3 m/s 760 mmHg 87%
    02:00 +8°C° 0 mm 3 m/s 760 mmHg 88%
    03:00 +8°C° 0 mm 3 m/s 759 mmHg 89%
    04:00 +8°C° 0 mm 3 m/s 759 mmHg 90%
    05:00 +9°C° 0 mm 3 m/s 759 mmHg 86%
    06:00 +11°C° 0 mm 4 m/s 758 mmHg 83%
    07:00 +12°C° 0 mm 4 m/s 758 mmHg 80%
    08:00 +14°C° 0 mm 3 m/s 758 mmHg 75%
    09:00 +16°C° 0 mm 3 m/s 757 mmHg 70%
    10:00 +18°C° 0 mm 3 m/s 757 mmHg 65%
    11:00 +18°C° 0 mm 3 m/s 757 mmHg 64%
    12:00 +19°C° 0 mm 3 m/s 756 mmHg 62%
    13:00 +20°C° 0 mm 3 m/s 755 mmHg 60%
    14:00 +20°C° 0 mm 2 m/s 755 mmHg 60%
    15:00 +20°C° 0 mm 2 m/s 755 mmHg 61%
    16:00 +20°C° 0 mm 2 m/s 754 mmHg 61%
    17:00 +20°C° 0 mm 2 m/s 754 mmHg 66%
    18:00 +20°C° 0 mm 1 m/s 754 mmHg 71%
    19:00 +19°C° 0 mm 1 m/s 754 mmHg 76%
    20:00 +18°C° 0 mm 1 m/s 754 mmHg 77%
    21:00 +16°C° 0 mm 1 m/s 754 mmHg 78%
    22:00 +15°C° 0 mm 1 m/s 754 mmHg 79%
    23:00 +15°C° 0 mm 2 m/s 754 mmHg 79%

    25 Mai, Sâmbătă

    Timp Temperatura Precipitaţii Vânt Presiune Umiditate
    00:00 +14°C° 0 mm 2 m/s 754 mmHg 80%
    01:00 +14°C° 0 mm 2 m/s 754 mmHg 80%
    02:00 +13°C° 0 mm 1 m/s 754 mmHg 82%
    03:00 +13°C° 0 mm 1 m/s 754 mmHg 83%
    04:00 +12°C° 0 mm 1 m/s 754 mmHg 84%
    05:00 +13°C° 0 mm 1 m/s 754 mmHg 83%
    06:00 +15°C° 0 mm 1 m/s 754 mmHg 81%
    07:00 +16°C° 0 mm 1 m/s 755 mmHg 80%
    08:00 +16°C° 0 mm 2 m/s 755 mmHg 82%
    09:00 +16°C° 0 mm 2 m/s 755 mmHg 84%
    10:00 +16°C° 0 mm 3 m/s 756 mmHg 86%
    11:00 +14°C° 0 mm 3 m/s 756 mmHg 86%
    12:00 +14°C° 0 mm 3 m/s 756 mmHg 85%
    13:00 +14°C° 0 mm 3 m/s 756 mmHg 85%
    14:00 +15°C° 0 mm 4 m/s 756 mmHg 81%
    15:00 +17°C° 0 mm 4 m/s 756 mmHg 78%
    16:00 +17°C° 0 mm 4 m/s 756 mmHg 74%
    17:00 +15°C° 0 mm 4 m/s 756 mmHg 76%
    18:00 +14°C° 0 mm 4 m/s 757 mmHg 78%
    19:00 +13°C° 0 mm 4 m/s 757 mmHg 80%
    20:00 +12°C° 0 mm 4 m/s 757 mmHg 84%
    21:00 +11°C° 0 mm 4 m/s 757 mmHg 89%
    22:00 +8°C° 0 mm 4 m/s 758 mmHg 93%
    23:00 +8°C° 0 mm 4 m/s 758 mmHg 93%
    Arată mai mult